Location: Unspecified
(0.0000°N, 0.0000°E)
Time: 09:19:02
(UTC+02:00)

Daily predictions for brighter satellites

Satellite Brightness Start Highest point End
(mag) Time Altitude Azimuth Time Altitude Azimuth Time Altitude Azimuth
ATLAS 5 CENTAUR R/B 4.4 19:56:51 10° SW 20:01:25 64° WNW 20:20:12 10° NNE
Ariane H10 3.9 20:08:31 10° W 20:12:59 90° SSW 20:46:33 10° E
Ariane H10 3.9 20:08:31 10° W 20:13:00 90° S 20:46:33 10° E
Cosmos 2112 Rocket 4.2 20:14:10 10° S 20:19:14 48° ESE 20:24:14 10° NNE
Cosmos 883 Rocket 4.5 20:14:52 10° S 20:21:00 79° E 20:27:07 10° N
Cosmos 1812 3.2 20:17:55 10° S 20:21:46 68° W 20:25:36 10° N
USA 238 DEB 3.8 20:15:08 10° NNW 20:22:16 81° ENE 20:29:26 10° SSE
USA 238 3.8 20:15:15 10° NNW 20:22:23 80° ENE 20:29:32 10° SSE
Cosmos 1437 3.5 20:20:49 10° SSE 20:23:42 31° E 20:26:34 10° NNE
Ariane H10+ 1.5 20:24:09 10° WSW 20:26:06 22° S 20:27:39 10° SE
Intelsat 5-1 Rocket 4.5 20:19:25 10° NW 20:30:15 31° N 20:34:48 10° ENE
ATLAS 3B R/B 3.2 20:24:21 10° NW 20:30:37 56° WSW 20:36:56 10° S
GPS 2-05 Rocket1 2.5 20:31:41 10° NW 20:34:45 87° NNE 20:37:34 12° SE
Cosmos 1680 Rocket 3.8 20:35:13 10° SSW 20:40:28 75° WNW 20:45:40 10° N
GPS 2-12 Rocket1 3.8 20:38:31 10° NW 20:42:51 42° NNE 20:46:29 13° E
Cosmos 967 Rocket 4.4 20:36:50 10° SSW 20:43:08 85° ESE 20:49:23 10° NNE
ARIANE 44P R/B 3.3 20:41:55 10° WSW 20:44:33 37° SSE 20:49:48 14° E
Okean 1 4.1 20:44:46 10° SSW 20:48:40 55° W 20:52:32 10° N
Meteor 1-5 Rocket 4.4 20:45:24 10° N 20:51:14 82° W 20:56:54 10° S
Cosmos 1943 Rocket 2.9 20:48:58 10° NNE 20:53:49 32° ENE 20:56:56 19° SE
SL-27 R/B 3.5 20:51:05 10° SSW 20:54:37 51° WNW 20:58:09 10° N
GPS 2-17 Rocket1 3.2 20:50:38 10° WSW 20:55:31 80° NNW 21:00:11 11° ENE
USA 81 4.3 20:50:43 10° SSE 20:55:43 44° E 21:00:43 10° NNE
Delta 202 4.3 20:53:19 10° WNW 20:59:02 62° NNE 21:04:37 19° E
NOSS 3-2 (C) 4.3 20:51:27 10° N 20:59:24 55° ENE 21:05:50 17° SE
Helios 1B rocket 4.0 20:57:10 10° NE 20:58:53 17° ENE 20:58:53 17° ENE
H-II Stage 2 3.5 20:59:19 10° NW 21:03:21 76° NE 21:15:26 21° ESE
Cosmos 724 4.3 20:57:59 10° N 21:03:41 60° ENE 21:07:40 20° SE
Cosmos 2369 Rocket 2.3 20:59:05 10° NNW 21:04:46 80° WSW 21:10:29 10° SSE
Abrixas 4.0 21:04:46 10° WNW 21:07:10 27° SW 21:08:19 20° S
MAQSAT/ARIANE V 1.6 21:08:16 10° W 21:10:10 45° N 21:11:10 28° NE
METEOR-M 4.5 21:05:43 10° S 21:11:01 65° WSW 21:16:19 10° NNW
Milstar 3 Cent rocket 3.5 21:05:18 10° WSW 21:12:12 89° NNW 21:27:19 10° ENE
Cosmos 1709 Rocket 3.9 21:10:46 10° N 21:16:49 66° E 21:22:04 14° SSE
NOSS 3-2 (A) 4.2 21:08:39 10° NNW 21:16:52 84° WSW 21:24:01 15° SSE
Cosmos 1025 Rocket 4.3 21:20:29 24° NE 21:20:29 24° NE 21:22:39 10° NNE
FENGYUN 3A 3.5 21:16:37 18° SSE 21:20:42 76° ENE 21:26:02 10° N
HETE-2 4.4 21:16:59 10° W 21:21:10 88° S 21:22:08 52° E
BLOCK DM-SL R/B 4.4 14:13:00 10° W 21:22:50 89° N 21:30:02 26° E
Cosmos 1975 2.8 21:19:56 10° N 21:23:57 59° E 21:24:24 55° ESE
Okean 1-7 Rocket 3.8 21:25:27 45° E 21:25:27 45° E 21:29:26 10° NNE
Cosmos 2082 Rocket 2.2 21:24:40 10° S 21:30:15 57° ESE 21:35:48 10° NNE
Ariane 42P Rocket 4.4 20:43:51 10° W 21:31:44 83° S 21:34:59 36° E
Meteor 1-23 Rocket 4.1 21:27:32 14° S 21:32:19 66° E 21:37:49 10° NNE
SJ-6B 3.1 21:30:57 34° S 21:32:41 70° WSW 21:36:47 10° NNW
Cosmos 1441 Rocket 3.6 21:32:59 23° SSW 21:35:08 61° W 21:38:49 10° N
CZ-3 Stage 3 4.0 21:24:01 10° WNW 21:36:22 25° SW 21:39:41 15° S
ARIANE 5 R/B 3.6 12:44:57 10° W 21:37:08 89° N 21:38:49 47° E
Cosmos 1500 3.7 21:36:45 10° NNW 21:40:25 56° W 21:40:54 51° SW
Meteor 1-12 Rocket 4.3 21:35:54 10° N 21:41:48 83° W 21:44:48 30° S
ALOS 3.6 21:47:23 18° SSW 21:50:22 36° WSW 21:54:38 10° NW
ARIANE 3 DEB 4.4 21:49:52 10° WSW 21:52:44 27° SW 21:52:44 27° SW
Ariane 42L R/B 4.3 21:52:19 10° WSW 21:53:08 19° WSW 21:53:08 19° WSW
SL-08 ROCKET BODY 4.3 21:51:43 10° N 21:57:53 77° E 21:58:06 76° ESE
Cosmos 1833 Rocket 2.7 21:53:47 10° SSW 21:59:22 75° WNW 22:04:58 10° N
Cosmos 2074 Rocket 4.2 21:54:11 10° N 21:59:22 54° NE 21:59:22 54° NE
COSMOS 2455 3.0 21:55:28 10° NNW 22:01:25 70° WSW 22:02:19 60° SSW
Spot 2 Rocket 3.9 22:03:32 55° N 22:03:32 55° N 22:07:25 10° N
Cosmos 1656 Rocket 4.1 22:01:35 10° N 22:05:44 51° N 22:05:44 51° N
Cosmos 2184 Rocket 4.3 22:01:49 10° N 22:06:40 54° NNE 22:06:40 54° NNE
Resurs 01 Rocket 3.5 22:22:32 28° NW 22:22:32 28° NW 22:25:01 10° NNW
Ariane 44P Rocket 3.7 22:05:50 10° W 22:21:27 70° WNW 22:21:27 70° WNW
Cosmos 1943 Rocket 4.4 22:33:57 10° WNW 22:37:16 16° WSW 22:38:31 15° WSW
CENTAUR R/B 3.3 22:38:46 10° NNW 22:46:04 67° WNW 22:46:04 67° WNW
